Location: Ajisawe
(8.4333°N, 4.3833°E)
Time: 00:00:47
(UTC+00:00)

USA 234 - Pass Details

Date: 07 June 2020
Orbit: 1102 x 1106 km, 123.0° (Epoch: 14 May)

Event Time Altitude Azimuth Distance (km) Brightness Sun altitude
Rises 02:46:35 0° 44° (NE) 3,906 7.1 -35.0°
Reaches altitude 10° 02:49:07 10° 49° (NE) 2,950 6.3 -34.5°
Maximum altitude 02:55:29 57° 126° (SE) 1,280 3.5 -33.2°
Enters shadow 02:55:34 57° 129° (SE) 1,280 3.5 -33.2°
